TimeCST,TemperatureF,Dew PointF,Humidity,Sea Level PressureIn,VisibilityMPH,Wind Direction,Wind SpeedMPH,Gust SpeedMPH,PrecipitationIn,Events,Conditions,WindDirDegrees,DateUTC
12:54 AM,21.0,19.0,92,30.32,9.0,South,3.5,-,N/A,,Clear,190,2011-12-24 06:54:00
1:54 AM,21.0,18.0,88,30.33,9.0,Calm,Calm,-,N/A,,Clear,0,2011-12-24 07:54:00
2:54 AM,19.0,17.1,92,30.35,9.0,South,3.5,-,N/A,,Clear,180,2011-12-24 08:54:00
3:54 AM,19.0,17.1,92,30.34,9.0,South,4.6,-,N/A,,Clear,170,2011-12-24 09:54:00
4:54 AM,19.9,17.1,89,30.32,9.0,Calm,Calm,-,N/A,,Clear,0,2011-12-24 10:54:00
5:54 AM,17.1,14.0,88,30.33,10.0,Calm,Calm,-,N/A,,Clear,0,2011-12-24 11:54:00
6:54 AM,17.1,14.0,88,30.33,10.0,South,5.8,-,N/A,,Clear,170,2011-12-24 12:54:00
7:54 AM,21.0,17.1,85,30.36,10.0,NNW,4.6,-,N/A,,Clear,340,2011-12-24 13:54:00
8:54 AM,21.9,19.9,92,30.36,10.0,South,4.6,-,N/A,,Clear,190,2011-12-24 14:54:00
9:54 AM,30.9,23.0,72,30.38,10.0,WSW,4.6,-,N/A,,Clear,240,2011-12-24 15:54:00
10:54 AM,37.0,23.0,57,30.40,10.0,WSW,5.8,-,N/A,,Clear,250,2011-12-24 16:54:00
11:54 AM,42.1,23.0,47,30.36,10.0,WSW,8.1,-,N/A,,Clear,240,2011-12-24 17:54:00
12:54 PM,46.0,23.0,40,30.33,10.0,WSW,8.1,-,N/A,,Clear,240,2011-12-24 18:54:00
1:54 PM,48.0,21.9,36,30.32,10.0,WSW,6.9,-,N/A,,Clear,240,2011-12-24 19:54:00
2:54 PM,48.2,21.2,34,30.28,10.0,WSW,9.2,-,N/A,,Clear,250,2011-12-24 20:54:00
3:54 PM,48.0,24.1,39,30.33,10.0,West,5.8,-,N/A,,Clear,270,2011-12-24 21:54:00
4:54 PM,44.1,25.0,47,30.34,10.0,WSW,4.6,-,N/A,,Clear,250,2011-12-24 22:54:00
5:54 PM,37.9,24.1,57,30.35,10.0,Calm,Calm,-,N/A,,Clear,0,2011-12-24 23:54:00
6:54 PM,36.0,25.0,64,30.35,10.0,Calm,Calm,-,N/A,,Clear,0,2011-12-25 00:54:00
7:54 PM,34.0,25.0,70,30.35,10.0,West,5.8,-,N/A,,Clear,260,2011-12-25 01:54:00
8:54 PM,34.0,25.0,70,30.35,10.0,WSW,8.1,-,N/A,,Clear,240,2011-12-25 02:54:00
9:54 PM,33.1,25.0,72,30.34,10.0,Calm,Calm,-,N/A,,Clear,0,2011-12-25 03:54:00
10:54 PM,32.0,24.1,73,30.34,10.0,Calm,Calm,-,N/A,,Clear,0,2011-12-25 04:54:00
11:54 PM,33.1,24.1,70,30.35,10.0,West,5.8,-,N/A,,Clear,260,2011-12-25 05:54:00